• In Hungary
  • List of Countries
  • For 7 days
  • Water Temperature
  • Satellite Maps
  • Weather Map
  • News
  • Weather Widgets
  • user-avatar
    Login

    Hourly Weather Santa Elena de Uairén

    Today, 24 February, Saturday

    Time Temperature Precipitation Wind Pressure Humidity
    00:00 +22°C° 0 mm 3 mps 681 mmHg 69%
    01:00 +22°C° 0 mm 3 mps 681 mmHg 70%
    02:00 +23°C° 0 mm 2 mps 681 mmHg 71%
    03:00 +21°C° 0 mm 2 mps 681 mmHg 73%
    04:00 +21°C° 0 mm 2 mps 680 mmHg 75%
    05:00 +20°C° 0 mm 2 mps 680 mmHg 78%
    06:00 +21°C° 0 mm 2 mps 681 mmHg 74%
    07:00 +23°C° 0 mm 2 mps 681 mmHg 70%
    08:00 +24°C° 0 mm 2 mps 682 mmHg 66%
    09:00 +26°C° 0 mm 2 mps 683 mmHg 58%
    10:00 +29°C° 0 mm 2 mps 683 mmHg 49%
    11:00 +31°C° 0 mm 1 mps 684 mmHg 40%
    12:00 +31°C° 0.2 mm 1 mps 683 mmHg 41%
    13:00 +31°C° 0.2 mm 1 mps 682 mmHg 42%
    14:00 +31°C° 0.2 mm 1 mps 681 mmHg 43%
    15:00 +30°C° 0.1 mm 1 mps 681 mmHg 47%
    16:00 +29°C° 0.1 mm 1 mps 680 mmHg 50%
    17:00 +28°C° 0.1 mm 1 mps 680 mmHg 53%
    18:00 +27°C° 1 mm 1 mps 680 mmHg 56%
    19:00 +26°C° 1 mm 1 mps 681 mmHg 60%
    20:00 +25°C° 1 mm 2 mps 681 mmHg 64%
    21:00 +24°C° 0.2 mm 2 mps 681 mmHg 64%
    22:00 +24°C° 0.2 mm 1 mps 682 mmHg 65%
    23:00 +24°C° 0.2 mm 1 mps 682 mmHg 65%

    Tomorrow, 25 February, Sunday

    Time Temperature Precipitation Wind Pressure Humidity
    00:00 +23°C° 0.1 mm 1 mps 682 mmHg 66%
    01:00 +23°C° 0.1 mm 1 mps 681 mmHg 68%
    02:00 +21°C° 0.1 mm 2 mps 681 mmHg 69%
    03:00 +21°C° 0.1 mm 2 mps 681 mmHg 70%
    04:00 +21°C° 0.1 mm 2 mps 681 mmHg 70%
    05:00 +20°C° 0.1 mm 2 mps 680 mmHg 70%
    06:00 +21°C° 0 mm 2 mps 681 mmHg 69%
    07:00 +21°C° 0 mm 2 mps 682 mmHg 67%
    08:00 +23°C° 0 mm 2 mps 683 mmHg 65%
    09:00 +26°C° 0 mm 1 mps 683 mmHg 56%
    10:00 +29°C° 0 mm 1 mps 684 mmHg 47%
    11:00 +32°C° 0 mm 1 mps 684 mmHg 37%
    12:00 +33°C° 0 mm 1 mps 683 mmHg 36%
    13:00 +33°C° 0 mm 1 mps 682 mmHg 34%
    14:00 +34°C° 0 mm 1 mps 681 mmHg 33%
    15:00 +33°C° 0 mm 1 mps 681 mmHg 34%
    16:00 +32°C° 0 mm 1 mps 681 mmHg 36%
    17:00 +31°C° 0 mm 1 mps 680 mmHg 37%
    18:00 +30°C° 0.1 mm 2 mps 681 mmHg 43%
    19:00 +28°C° 0.1 mm 2 mps 681 mmHg 49%
    20:00 +27°C° 0.1 mm 3 mps 681 mmHg 55%
    21:00 +26°C° 0.5 mm 3 mps 682 mmHg 61%
    22:00 +25°C° 0.5 mm 2 mps 682 mmHg 67%
    23:00 +24°C° 0.5 mm 2 mps 682 mmHg 73%

    Day after tomorrow, 26 February, Monday

    Time Temperature Precipitation Wind Pressure Humidity
    00:00 +23°C° 0 mm 2 mps 682 mmHg 75%
    01:00 +23°C° 0 mm 2 mps 681 mmHg 77%
    02:00 +21°C° 0 mm 2 mps 681 mmHg 79%
    03:00 +21°C° 0 mm 2 mps 681 mmHg 80%
    04:00 +21°C° 0 mm 2 mps 681 mmHg 81%
    05:00 +20°C° 0 mm 2 mps 681 mmHg 82%
    06:00 +21°C° 0 mm 2 mps 682 mmHg 78%
    07:00 +23°C° 0 mm 2 mps 682 mmHg 74%
    08:00 +24°C° 0 mm 2 mps 683 mmHg 71%
    09:00 +26°C° 0 mm 2 mps 683 mmHg 61%
    10:00 +29°C° 0 mm 2 mps 684 mmHg 51%
    11:00 +31°C° 0 mm 1 mps 684 mmHg 41%
    12:00 +31°C° 0 mm 1 mps 683 mmHg 41%
    13:00 +31°C° 0 mm 1 mps 682 mmHg 42%
    14:00 +31°C° 0 mm 1 mps 681 mmHg 42%
    15:00 +31°C° 0 mm 1 mps 681 mmHg 43%
    16:00 +30°C° 0 mm 1 mps 680 mmHg 44%
    17:00 +30°C° 0 mm 1 mps 680 mmHg 45%
    18:00 +28°C° 0.1 mm 1 mps 680 mmHg 51%
    19:00 +27°C° 0.1 mm 2 mps 681 mmHg 56%
    20:00 +26°C° 0.1 mm 2 mps 681 mmHg 62%
    21:00 +25°C° 0.1 mm 2 mps 681 mmHg 66%
    22:00 +24°C° 0.1 mm 2 mps 682 mmHg 70%
    23:00 +24°C° 0.1 mm 3 mps 682 mmHg 73%

    27 February, Tuesday

    Time Temperature Precipitation Wind Pressure Humidity
    00:00 +23°C° 0.1 mm 2 mps 681 mmHg 75%
    01:00 +23°C° 0.1 mm 2 mps 681 mmHg 76%
    02:00 +21°C° 0.1 mm 2 mps 680 mmHg 78%
    03:00 +21°C° 0 mm 2 mps 680 mmHg 79%
    04:00 +21°C° 0 mm 2 mps 680 mmHg 79%
    05:00 +21°C° 0 mm 2 mps 680 mmHg 80%
    06:00 +21°C° 0 mm 2 mps 681 mmHg 76%
    07:00 +23°C° 0 mm 2 mps 682 mmHg 72%
    08:00 +24°C° 0 mm 2 mps 683 mmHg 68%
    09:00 +27°C° 0 mm 2 mps 683 mmHg 59%
    10:00 +29°C° 0 mm 2 mps 683 mmHg 50%
    11:00 +32°C° 0 mm 1 mps 684 mmHg 41%
    12:00 +31°C° 0 mm 1 mps 683 mmHg 41%
    13:00 +31°C° 0 mm 1 mps 682 mmHg 42%
    14:00 +31°C° 0 mm 1 mps 681 mmHg 42%
    15:00 +30°C° 0.1 mm 1 mps 680 mmHg 45%
    16:00 +29°C° 0.1 mm 1 mps 680 mmHg 48%
    17:00 +29°C° 0.1 mm 1 mps 679 mmHg 51%
    18:00 +27°C° 1.2 mm 1 mps 680 mmHg 56%
    19:00 +26°C° 1.2 mm 1 mps 680 mmHg 62%
    20:00 +25°C° 1.2 mm 1 mps 680 mmHg 67%
    21:00 +25°C° 0.6 mm 2 mps 681 mmHg 70%
    22:00 +24°C° 0.6 mm 2 mps 681 mmHg 72%
    23:00 +24°C° 0.6 mm 2 mps 681 mmHg 75%

    28 February, Wednesday

    Time Temperature Precipitation Wind Pressure Humidity
    00:00 +23°C° 0.3 mm 2 mps 681 mmHg 77%
    01:00 +23°C° 0.3 mm 1 mps 680 mmHg 79%
    02:00 +23°C° 0.3 mm 1 mps 680 mmHg 80%
    03:00 +22°C° 0 mm 1 mps 680 mmHg 82%
    04:00 +22°C° 0 mm 1 mps 680 mmHg 83%
    05:00 +21°C° 0 mm 1 mps 680 mmHg 84%
    06:00 +22°C° 0 mm 1 mps 680 mmHg 81%
    07:00 +23°C° 0 mm 1 mps 681 mmHg 78%
    08:00 +24°C° 0 mm 2 mps 682 mmHg 74%
    09:00 +26°C° 0 mm 1 mps 682 mmHg 65%
    10:00 +29°C° 0 mm 1 mps 683 mmHg 55%
    11:00 +31°C° 0 mm 1 mps 683 mmHg 46%
    12:00 +31°C° 0.4 mm 1 mps 682 mmHg 47%
    13:00 +31°C° 0.4 mm 1 mps 681 mmHg 48%
    14:00 +31°C° 0.4 mm 1 mps 680 mmHg 49%
    15:00 +30°C° 0.3 mm 1 mps 680 mmHg 51%
    16:00 +30°C° 0.3 mm 1 mps 680 mmHg 53%
    17:00 +29°C° 0.3 mm 1 mps 679 mmHg 55%
    18:00 +28°C° 0.4 mm 2 mps 680 mmHg 59%
    19:00 +27°C° 0.4 mm 2 mps 680 mmHg 64%
    20:00 +25°C° 0.4 mm 2 mps 681 mmHg 68%
    21:00 +25°C° 0.4 mm 2 mps 681 mmHg 71%
    22:00 +24°C° 0.4 mm 2 mps 681 mmHg 73%
    23:00 +24°C° 0.4 mm 2 mps 682 mmHg 76%

    1 March, Thursday

    Time Temperature Precipitation Wind Pressure Humidity
    00:00 +23°C° 0.1 mm 2 mps 681 mmHg 78%
    01:00 +23°C° 0.1 mm 2 mps 681 mmHg 80%
    02:00 +21°C° 0.1 mm 2 mps 680 mmHg 82%
    03:00 +21°C° 0 mm 2 mps 680 mmHg 82%
    04:00 +21°C° 0 mm 2 mps 680 mmHg 83%
    05:00 +21°C° 0 mm 2 mps 680 mmHg 84%
    06:00 +21°C° 0 mm 2 mps 681 mmHg 80%
    07:00 +23°C° 0 mm 2 mps 682 mmHg 76%
    08:00 +24°C° 0 mm 2 mps 682 mmHg 71%
    09:00 +27°C° 0 mm 2 mps 683 mmHg 62%
    10:00 +29°C° 0 mm 1 mps 683 mmHg 53%
    11:00 +32°C° 0 mm 1 mps 684 mmHg 44%
    12:00 +31°C° 0.3 mm 1 mps 683 mmHg 46%
    13:00 +31°C° 0.3 mm 1 mps 682 mmHg 48%
    14:00 +30°C° 0.3 mm 1 mps 681 mmHg 50%
    15:00 +30°C° 0.4 mm 1 mps 680 mmHg 51%
    16:00 +30°C° 0.4 mm 1 mps 680 mmHg 51%
    17:00 +29°C° 0.4 mm 2 mps 680 mmHg 52%
    18:00 +28°C° 0.3 mm 2 mps 680 mmHg 56%
    19:00 +27°C° 0.3 mm 2 mps 680 mmHg 60%
    20:00 +26°C° 0.3 mm 2 mps 681 mmHg 65%
    21:00 +25°C° 0.1 mm 2 mps 681 mmHg 68%
    22:00 +24°C° 0.1 mm 2 mps 681 mmHg 71%
    23:00 +24°C° 0.1 mm 2 mps 682 mmHg 74%
    Show more